This is the latest recevied weather packets stored in our database for station/object N5ATR. If no packets are shown the sender has not sent any weather packets the latest 10 day(s).
| Time | Temp. | Humidity | Pressure | Rain* | Wind** | Luminosity | Snow |
|---|---|---|---|---|---|---|---|
| 1777885305 | 11.11° C | 66% | 1014.5 hPa | 0 mm | - | 0 W/m² | - |
| 1777885003 | 11.11° C | 66% | 1014.4 hPa | 0 mm | - | 0 W/m² | - |
| 1777884698 | 11.67° C | 65% | 1014.6 hPa | 0 mm | - | 0 W/m² | - |
| 1777884395 | 11.11° C | 65% | 1014.8 hPa | 0 mm | - | 0 W/m² | - |
| 1777884092 | 11.67° C | 65% | 1014.6 hPa | 0 mm | - | 0 W/m² | - |
| 1777883790 | 11.67° C | 63% | 1014.9 hPa | 0 mm | - | 0 W/m² | - |
| 1777883486 | 12.22° C | 62% | 1014.8 hPa | 0 mm | - | 0 W/m² | - |
| 1777883182 | 12.22° C | 63% | 1014.9 hPa | 0 mm | - | 0 W/m² | - |
| 1777882879 | 11.67° C | 63% | 1014.8 hPa | 0 mm | - | 0 W/m² | - |
| 1777882576 | 11.11° C | 66% | 1014.9 hPa | 0 mm | - | 0 W/m² | - |
| 1777882271 | 11.67° C | 65% | 1014.8 hPa | 0 mm | - | 0 W/m² | - |
| 1777881969 | 11.67° C | 65% | 1014.8 hPa | 0 mm | - | 0 W/m² | - |
| 1777881665 | 11.67° C | 64% | 1015.3 hPa | 0 mm | - | 0 W/m² | - |
| 1777881361 | 12.22° C | 62% | 1015 hPa | 0 mm | - | 0 W/m² | - |
| 1777881059 | 12.22° C | 62% | 1015.4 hPa | 0 mm | - | 0 W/m² | - |
| 1777880757 | 12.22° C | 61% | 1015.5 hPa | 0 mm | - | 0 W/m² | - |
| 1777880455 | 12.22° C | 62% | 1015.7 hPa | 0 mm | - | 0 W/m² | - |
| 1777880153 | 12.22° C | 61% | 1015.6 hPa | 0 mm | - | 0 W/m² | - |
| 1777879851 | 12.22° C | 61% | 1015.6 hPa | 0 mm | - | 0 W/m² | - |
| 1777879549 | 12.22° C | 60% | 1015.7 hPa | 0 mm | - | 0 W/m² | - |
| 1777879245 | 12.78° C | 59% | 1015.9 hPa | 0 mm | - | 0 W/m² | - |
| 1777878942 | 12.78° C | 58% | 1015.5 hPa | 0 mm | - | 0 W/m² | - |
| 1777878639 | 12.78° C | 57% | 1015.3 hPa | 0 mm | - | 0 W/m² | - |
| 1777878337 | 12.78° C | 57% | 1015.9 hPa | 0 mm | - | 0 W/m² | - |
| 1777878032 | 12.78° C | 56% | 1015.6 hPa | 0 mm | - | 0 W/m² | - |
* Rain latest hour (hover to see other rain measurements)
** Current wind speed in m/s (hover to see current wind gust speed)